Wind_Speed
25 25 24 23 22 22 21 20 19 19 18 17 16 15 15 14 14 14 13 12 11 10 9 9 8 7 6 5 4 4 3 2 1 2 1 1 2 3 3 4 5 5 5
27 27 27 26 25 24 23 22 21 20 19 19 18 17 16 16 15 14 14 13 12 11 10 9 9 8 7 6 6 5 4 3 2 2 1 2 3 3 4 4 5 6 7
29 29 29 28 27 26 25 23 23 22 21 20 20 19 18 17 16 16 15 15 14 12 11 10 10 9 8 7 6 5 4 4 3 3 2 3 4 4 4 5 6 7 8
31 31 30 30 29 28 27 25 24 23 23 22 21 21 20 19 18 17 17 16 15 14 13 12 11 10 10 9 7 6 5 5 4 4 4 4 5 5 5 6 6 8 8
33 32 32 32 31 31 30 28 26 25 24 23 23 23 22 21 20 19 18 17 17 16 15 13 12 11 11 10 9 8 6 6 5 6 6 6 6 6 6 7 7 8 9
34 34 34 34 33 33 32 30 29 27 26 26 24 24 24 22 21 20 19 19 18 17 16 15 14 13 12 11 10 9 8 7 7 7 7 7 7 7 7 7 8 9 10
35 35 35 35 35 35 34 33 31 30 28 28 27 26 25 24 23 22 20 20 20 19 17 17 16 15 13 13 12 11 10 9 8 8 9 8 8 8 9 9 10 11 11
37 36 36 36 37 37 36 35 34 32 31 30 29 28 26 26 25 23 21 21 21 20 19 18 17 16 15 14 13 12 11 10 10 10 10 10 10 10 10 11 11 12 12
37 38 38 37 37 38 38 38 37 36 34 31 30 29 28 28 27 25 23 22 22 21 20 19 19 18 17 16 15 14 13 12 11 11 11 11 12 12 12 12 12 13 13
38 38 39 39 39 39 39 39 38 38 36 34 33 31 30 29 29 27 26 25 23 22 21 21 20 19 18 17 16 15 14 13 13 13 13 13 13 13 14 14 14 14 14
37 38 38 39 39 39 40 40 40 39 38 36 34 33 32 31 30 29 27 26 24 23 22 22 22 20 19 18 18 17 16 15 15 15 15 15 15 14 15 15 15 15 16
37 38 39 38 38 40 41 41 41 41 39 39 36 34 33 32 32 31 30 28 26 24 23 22 22 22 21 20 19 18 17 17 16 16 16 16 16 15 16 16 17 17 17
37 39 40 39 39 40 39 41 41 41 40 39 38 36 34 34 34 32 31 30 28 26 24 23 23 23 22 21 20 19 19 18 18 18 17 17 17 17 17 18 18 19 19
37 38 40 40 40 40 39 39 41 41 41 40 39 37 35 35 36 34 33 32 30 28 27 25 25 24 23 22 21 21 20 20 20 20 19 19 19 19 19 20 20 20 21
36 37 40 41 41 41 40 39 40 41 42 41 39 38 37 36 36 35 34 34 33 30 29 27 26 25 25 24 23 22 22 21 21 22 22 21 21 21 22 22 22 22 22
34 35 37 41 41 41 40 39 39 40 41 41 40 39 38 36 36 35 34 34 34 33 31 29 28 27 26 25 24 23 23 23 23 23 23 23 23 24 24 24 24 24 24
32 34 36 38 40 41 42 40 39 40 41 42 42 40 38 36 36 35 33 34 34 34 32 30 30 29 28 27 26 25 25 25 24 24 24 24 24 25 25 26 26 26 26
30 32 33 36 39 40 41 41 39 40 41 43 43 42 40 38 37 36 34 34 33 33 31 31 30 29 28 28 27 27 26 26 25 25 25 26 26 26 26 27 27 27 27
29 31 32 34 37 40 41 41 39 40 40 41 43 43 41 39 37 37 36 35 33 32 32 31 31 30 30 29 28 28 28 28 28 27 27 27 28 28 28 29 29 29 29
26 27 30 31 34 37 41 40 39 41 40 41 42 42 41 39 37 35 35 34 33 33 32 32 32 32 32 31 30 30 29 29 29 29 29 29 29 29 29 29 30 30 31
24 26 27 29 30 34 38 39 39 40 40 41 41 40 40 39 38 36 35 35 34 34 34 33 33 34 34 34 33 32 31 30 30 30 30 30 29 30 30 31 31 32 32
21 24 25 27 29 33 36 37 36 38 39 41 41 39 39 39 37 36 35 35 34 34 33 34 35 35 35 35 35 34 33 32 32 32 32 32 32 32 32 32 33 34 34
18 20 23 25 28 31 35 36 34 37 39 39 40 40 38 39 39 38 37 37 36 35 35 35 35 35 35 36 36 36 35 34 34 34 35 35 35 36 36 36 35 36 36
17 19 21 23 27 30 32 34 35 36 38 38 39 39 39 38 38 38 37 36 36 36 36 35 36 36 35 36 36 36 37 36 36 36 37 37 38 38 38 37 37 38 39
16 18 20 22 25 28 31 32 33 34 35 37 38 38 39 39 38 38 38 38 38 37 37 36 37 36 36 36 37 37 37 38 39 38 38 38 39 39 40 39 39 39 40
16 18 20 21 22 25 28 29 31 33 35 36 36 36 37 37 37 38 39 39 38 37 37 37 38 38 38 38 38 39 39 41 42 42 41 40 40 41 41 40 40 41 42
Wind_Direction
241 239 237 235 235 234 232 231 229 228 226 224 222 221 218 217 214 211 209 208 206 205 203 200 200 200 201 200 199 198 196 197 205 201 255 316 321 329 334 337 338 336 338
243 239 237 235 235 234 233 232 230 230 228 226 224 222 221 219 217 215 213 211 209 208 206 205 204 202 203 204 205 204 206 214 225 225 264 295 304 314 322 325 325 326 328
244 241 238 236 235 234 233 232 231 230 228 227 225 224 223 221 219 217 214 212 210 209 207 207 207 206 207 207 209 210 214 219 236 245 265 283 295 302 309 315 318 320 322
244 241 239 236 235 233 232 232 232 231 229 228 226 224 223 222 219 217 215 213 211 210 209 209 210 210 211 211 215 219 222 230 246 261 267 280 288 291 296 304 312 317 319
243 241 239 236 234 233 232 232 232 231 230 228 227 225 223 223 221 219 218 216 214 213 212 211 212 213 212 214 219 225 231 239 252 265 269 277 283 284 288 297 305 311 315
242 240 238 236 235 233 232 232 231 231 231 229 228 226 224 224 222 220 221 219 217 216 215 214 215 215 216 218 222 230 237 245 257 267 269 272 277 283 287 294 302 307 311
242 240 238 236 235 234 233 232 232 230 231 230 229 227 226 225 224 221 222 221 219 219 219 218 217 218 219 222 226 231 239 249 259 268 269 270 275 281 286 293 299 303 307
241 239 238 237 235 234 234 233 232 231 231 230 229 228 227 226 225 222 224 224 222 220 221 220 219 221 222 225 229 234 242 251 259 267 270 271 276 280 285 290 295 299 302
241 239 239 237 236 235 233 233 233 232 232 231 229 229 228 227 226 224 224 225 224 222 222 222 221 223 225 228 232 237 244 252 258 265 270 272 276 279 283 287 292 296 299
240 240 239 237 237 236 235 233 233 232 232 231 230 229 228 228 228 227 225 225 225 225 224 224 224 225 228 231 235 240 247 253 258 264 271 273 275 278 281 284 288 292 295
241 239 237 236 236 236 235 234 233 232 231 230 229 228 227 227 227 227 225 225 225 226 227 227 226 227 231 235 238 243 250 255 261 266 271 272 275 278 281 283 286 288 291
241 238 235 235 235 235 235 234 233 230 229 228 228 227 227 227 226 226 226 226 226 226 228 229 229 230 233 237 242 246 252 258 263 268 271 272 275 277 280 283 285 287 289
240 238 234 234 234 233 232 233 231 228 227 227 226 226 227 227 227 227 227 228 227 227 230 231 232 233 235 238 243 248 253 258 263 268 271 273 275 277 280 282 284 286 288
240 237 234 233 233 231 229 230 230 228 226 224 224 224 226 228 227 228 228 228 229 229 231 233 234 236 238 241 244 249 254 258 264 268 271 272 273 276 280 282 284 286 287
240 237 235 233 232 230 229 229 228 227 224 223 224 224 226 228 227 228 229 230 230 231 232 234 236 238 240 243 246 250 255 259 264 267 270 271 274 277 280 281 283 284 286
240 237 235 232 231 230 229 229 228 224 224 223 223 224 226 227 227 226 228 230 231 231 232 234 237 239 242 245 247 250 254 258 263 266 268 271 274 277 279 280 281 283 285
241 239 236 234 232 230 229 229 228 226 225 225 223 224 227 227 228 228 228 229 230 231 233 235 238 239 243 245 248 251 255 259 262 266 269 273 276 277 278 280 281 284 285
244 241 237 234 230 228 227 227 228 226 224 224 224 225 228 229 228 228 229 230 231 232 234 236 239 241 244 245 248 251 256 258 263 267 271 273 276 277 278 280 281 283 285
247 244 240 234 228 226 225 225 227 226 224 224 224 225 227 229 230 229 230 232 233 233 235 237 239 241 244 245 249 254 257 259 263 267 270 273 275 276 277 279 281 282 285
247 243 238 234 227 226 225 226 228 225 224 224 224 225 226 229 230 228 229 230 230 232 235 238 239 242 245 247 251 256 259 261 263 266 267 270 274 277 278 279 279 281 283
249 241 236 233 229 226 226 226 226 226 225 224 223 224 226 228 229 228 229 232 233 236 239 242 244 245 247 249 252 256 261 263 264 266 267 270 274 277 277 278 280 281 282
248 241 235 232 228 226 225 224 224 227 226 224 224 225 227 227 229 229 231 233 235 239 243 246 248 249 250 251 254 257 260 263 264 266 269 273 274 276 278 280 281 282 282
247 239 233 233 231 229 228 225 225 226 225 223 224 226 228 228 230 232 234 235 236 241 245 248 250 251 252 254 257 259 261 263 266 268 271 273 274 276 278 280 281 283 284
247 240 234 235 233 231 228 227 226 226 226 224 225 227 229 231 232 233 235 236 238 242 246 249 251 253 254 255 258 262 264 266 269 270 271 273 274 276 278 279 281 282 283
250 244 240 239 236 235 232 231 228 226 225 224 225 227 230 234 233 235 237 239 241 244 246 249 252 255 256 258 260 262 266 269 270 271 272 273 274 276 277 278 281 282 283
251 246 244 242 239 235 231 231 229 226 226 226 226 229 233 235 235 239 240 241 244 246 248 250 253 256 258 261 262 264 267 269 271 272 273 274 274 275 276 277 280 281 283
Height
5830 5831 5833 5834 5836 5837 5839 5840 5842 5843 5844 5846 5847 5849 5849 5850 5851 5852 5854 5855 5856 5857 5858 5859 5860 5861 5862 5862 5863 5864 5864 5865 5865 5866 5866 5866 5866 5866 5866 5866 5866 5866 5866
5825 5827 5829 5830 5832 5834 5836 5837 5839 5840 5842 5843 5845 5846 5847 5848 5849 5850 5852 5853 5854 5855 5857 5858 5859 5860 5861 5862 5862 5863 5864 5864 5864 5865 5865 5865 5866 5866 5865 5865 5865 5865 5864
5819 5822 5824 5826 5828 5830 5832 5834 5835 5837 5839 5840 5842 5843 5845 5846 5847 5848 5849 5851 5852 5854 5855 5856 5857 5858 5860 5860 5861 5862 5863 5863 5864 5864 5864 5864 5864 5865 5864 5864 5864 5864 5863
5814 5816 5819 5821 5823 5825 5828 5830 5832 5834 5835 5837 5839 5840 5841 5843 5844 5845 5847 5848 5850 5851 5853 5854 5856 5857 5858 5859 5860 5861 5861 5862 5862 5863 5863 5863 5863 5863 5863 5863 5863 5862 5862
5807 5810 5813 5815 5818 5820 5823 5825 5827 5829 5831 5833 5835 5837 5838 5839 5841 5842 5844 5846 5847 5849 5850 5852 5853 5855 5856 5857 5858 5859 5860 5860 5861 5861 5862 5862 5862 5862 5862 5861 5861 5861 5860
5800 5803 5806 5809 5812 5814 5817 5820 5822 5825 5827 5829 5831 5833 5834 5836 5837 5839 5841 5843 5844 5846 5847 5849 5851 5852 5854 5855 5856 5857 5858 5859 5859 5860 5860 5860 5860 5860 5860 5860 5859 5859 5858
5793 5796 5799 5802 5805 5808 5811 5814 5817 5820 5822 5824 5826 5828 5830 5832 5834 5835 5837 5839 5841 5843 5845 5846 5848 5850 5851 5852 5854 5855 5856 5857 5857 5858 5858 5858 5858 5858 5858 5858 5857 5857 5856
5785 5788 5792 5795 5798 5802 5805 5808 5811 5814 5816 5818 5821 5823 5826 5828 5830 5832 5834 5835 5838 5840 5842 5843 5845 5847 5849 5850 5851 5852 5853 5854 5855 5855 5856 5856 5856 5856 5856 5856 5855 5855 5854
5777 5780 5784 5787 5791 5794 5798 5801 5805 5808 5811 5813 5816 5819 5821 5823 5826 5828 5830 5832 5834 5836 5838 5840 5842 5844 5845 5847 5848 5850 5851 5852 5853 5853 5853 5854 5853 5853 5853 5853 5853 5852 5851
5768 5772 5775 5779 5783 5786 5790 5794 5798 5801 5805 5808 5811 5813 5816 5818 5821 5823 5826 5828 5830 5832 5834 5837 5839 5841 5842 5844 5845 5847 5848 5849 5850 5850 5850 5851 5851 5850 5850 5850 5850 5849 5849
5759 5763 5767 5771 5775 5778 5782 5786 5790 5794 5797 5801 5805 5808 5811 5813 5816 5819 5822 5824 5826 5828 5831 5833 5835 5837 5839 5841 5842 5844 5845 5846 5847 5847 5847 5848 5848 5847 5847 5847 5847 5846 5845
5751 5754 5759 5762 5766 5770 5774 5778 5782 5786 5790 5794 5798 5802 5805 5808 5811 5814 5817 5819 5822 5825 5827 5829 5831 5834 5835 5837 5839 5840 5842 5843 5843 5844 5844 5844 5844 5844 5844 5844 5843 5843 5842
5742 5746 5750 5754 5758 5761 5765 5769 5773 5778 5783 5787 5792 5796 5799 5802 5806 5809 5812 5814 5817 5820 5823 5825 5828 5830 5831 5833 5835 5837 5838 5839 5840 5840 5840 5841 5841 5840 5840 5840 5839 5839 5838
5733 5737 5741 5745 5749 5753 5757 5761 5766 5771 5776 5780 5785 5789 5793 5796 5799 5803 5806 5809 5813 5816 5818 5821 5823 5826 5827 5829 5831 5832 5834 5835 5836 5836 5837 5837 5836 5836 5836 5836 5835 5835 5834
5724 5728 5732 5736 5740 5745 5749 5754 5758 5763 5768 5774 5778 5783 5787 5790 5793 5797 5801 5804 5808 5811 5814 5816 5819 5821 5823 5825 5827 5828 5829 5831 5831 5832 5832 5832 5832 5832 5832 5831 5831 5830 5830
5716 5719 5723 5727 5732 5737 5741 5746 5751 5756 5761 5767 5772 5777 5781 5784 5787 5791 5795 5799 5802 5805 5808 5811 5814 5816 5818 5820 5822 5823 5824 5826 5826 5827 5827 5827 5827 5827 5827 5826 5826 5825 5824
5708 5711 5714 5719 5723 5728 5733 5738 5743 5749 5754 5759 5765 5770 5774 5778 5782 5786 5789 5793 5797 5800 5803 5806 5809 5811 5813 5815 5817 5818 5819 5820 5821 5822 5822 5822 5822 5822 5821 5821 5820 5820 5819
5700 5703 5706 5710 5715 5720 5725 5730 5736 5742 5747 5752 5757 5763 5768 5771 5775 5779 5784 5788 5791 5795 5797 5800 5803 5806 5808 5810 5811 5813 5814 5815 5815 5816 5816 5817 5816 5816 5815 5815 5815 5814 5813
5693 5695 5698 5702 5707 5712 5718 5723 5728 5734 5739 5744 5749 5755 5761 5765 5769 5773 5778 5782 5785 5789 5792 5795 5797 5800 5802 5804 5805 5807 5808 5809 5809 5810 5810 5810 5810 5810 5809 5809 5808 5808 5807
5686 5688 5691 5695 5699 5705 5710 5715 5721 5726 5732 5737 5742 5748 5754 5759 5764 5768 5772 5776 5779 5783 5786 5789 5791 5794 5796 5798 5799 5801 5801 5802 5803 5803 5804 5803 5803 5803 5802 5802 5802 5801 5800
5680 5682 5685 5689 5693 5698 5703 5708 5713 5719 5725 5731 5736 5741 5747 5753 5757 5762 5766 5770 5773 5777 5780 5783 5785 5787 5789 5791 5793 5794 5795 5795 5796 5796 5796 5796 5796 5796 5795 5795 5794 5794 5793
5675 5676 5679 5683 5687 5692 5697 5701 5707 5713 5719 5725 5730 5735 5741 5746 5751 5755 5759 5763 5767 5770 5773 5776 5778 5781 5782 5784 5786 5787 5788 5789 5789 5789 5789 5789 5789 5789 5788 5787 5786 5786 5785
5670 5672 5675 5678 5682 5686 5690 5695 5700 5706 5711 5718 5724 5729 5734 5739 5744 5748 5752 5756 5760 5763 5766 5769 5771 5773 5775 5777 5778 5780 5781 5781 5782 5782 5782 5781 5781 5781 5780 5779 5778 5777 5776
5667 5668 5671 5674 5677 5680 5685 5690 5695 5701 5706 5712 5718 5723 5728 5733 5737 5742 5746 5749 5753 5756 5759 5761 5763 5766 5768 5769 5771 5772 5773 5774 5774 5774 5774 5773 5773 5772 5772 5771 5770 5769 5767
5663 5665 5667 5670 5673 5676 5679 5684 5689 5695 5701 5706 5712 5717 5722 5726 5731 5735 5739 5742 5745 5748 5751 5753 5755 5758 5760 5761 5762 5763 5764 5764 5764 5765 5765 5764 5764 5763 5762 5762 5761 5759 5758
5661 5662 5664 5666 5669 5672 5675 5680 5684 5690 5696 5701 5706 5710 5715 5719 5723 5727 5731 5735 5737 5740 5742 5744 5747 5749 5751 5752 5753 5754 5755 5755 5755 5755 5755 5755 5754 5754 5753 5752 5751 5749 5748